SCP
0 0 0 0 0 0 0 0 0 0 0 0 0 0 -0 0 0 0 0 0 0 0 0 -0 0 -0 0 0 0 0 0 0 0 0 0 0 0 0 0 0 0 0 0
0 0 0 0 0 0 0 0 0 0 0 0 0 0 0 0 0 0 0 0 0 0 0 -0 -0 -0 -0 0 0 0 0 0 0 0 0 0 0 0 0 0 0 0 0
0 0 0 0 0 0 0 0 0 0 0 0 0 0 0 0 0 0 0 0 0 0 -0 0 -0 -0 -0 0 0 0 0 0 0 0 0 0 0 0 0 0 0 0 0
0 0 0 0 0 0 0 0 0 0 0 0 0 0 0 0 0 0 0 0 0 0 0 -0 -0 -0 0 0 0 0 0 0 0 0 0 0 0 0 0 0 0 0 0
0 0 0 0 0 0 0 0 0 0 0 0 0 0 0 0 0 0 0 0 0 0 0 0 -0 0 0 0 0 0 0 0 0 0 0 0 0 0 0 0 0 0 0
0 0 0 1 0 1 0 0 0 0 0 0 0 0 0 0 0 0 0 0 0 0 0 0 0 0 0 0 0 0 0 0 0 0 0 0 0 0 0 0 0 0 0
0 0 0 1 1 1 0 0 0 0 0 0 0 0 0 0 0 0 0 0 0 0 0 0 0 0 0 0 0 0 0 0 0 0 0 0 0 0 0 0 0 0 0
0 0 0 1 1 0 0 0 0 0 0 0 0 0 0 0 0 0 0 0 0 0 0 0 0 0 0 0 0 0 0 0 0 0 0 0 0 0 0 0 0 0 0
1 0 0 0 0 0 0 0 0 0 0 0 0 0 0 0 0 0 0 0 0 0 0 0 0 0 0 0 0 0 0 0 0 0 0 0 0 0 0 0 0 0 0
0 0 1 0 0 0 0 0 0 0 0 1 0 0 0 0 0 0 0 0 0 0 0 0 0 0 0 0 0 0 0 0 0 0 0 0 0 0 0 0 0 0 0
0 1 0 0 0 0 0 0 0 0 0 1 0 0 0 0 0 0 0 0 0 0 0 0 0 0 0 0 0 0 0 0 0 0 0 0 0 0 0 0 0 0 0
0 0 0 0 0 0 0 0 0 0 0 0 1 1 1 0 0 0 0 0 0 0 0 0 0 0 0 0 0 0 0 0 0 0 0 0 0 0 0 0 0 0 0
0 0 0 0 0 0 0 0 0 0 0 0 1 0 0 0 0 0 0 0 0 0 0 0 0 0 0 0 0 0 0 0 0 0 0 0 0 0 0 0 0 0 0
0 0 0 0 0 0 0 -0 0 0 0 0 0 0 0 0 0 0 0 0 0 0 0 0 0 0 0 0 0 0 0 0 0 0 0 0 0 0 0 0 0 0 0
0 0 0 0 0 0 0 0 0 0 0 0 0 0 0 0 0 0 0 0 0 0 0 0 0 0 0 0 0 0 0 0 0 0 0 0 0 0 0 0 0 0 0
0 0 0 0 0 0 0 0 0 0 0 0 0 0 1 1 1 0 0 0 0 0 0 0 0 0 0 0 0 0 0 0 0 0 0 0 0 0 0 0 0 0 0
0 0 0 0 0 0 0 0 0 0 0 0 0 0 1 1 0 0 0 0 0 0 0 0 0 0 0 0 0 0 0 0 0 0 0 0 0 0 0 0 0 0 0
0 0 0 0 0 0 0 0 0 0 0 0 0 0 0 1 0 0 0 0 0 0 0 0 0 0 0 0 0 0 0 0 0 0 0 0 0 0 0 0 0 0 0
0 0 0 0 0 0 0 0 0 0 0 0 0 0 0 0 0 0 0 0 0 0 0 0 0 0 0 0 0 0 0 0 0 0 0 0 0 0 0 0 0 0 0
0 0 0 0 0 0 0 0 0 0 0 0 0 0 0 0 0 0 0 0 0 0 0 0 0 0 0 0 0 0 0 0 0 0 0 0 0 0 0 0 0 0 0
0 0 0 0 0 0 0 0 0 0 0 0 0 0 0 0 -0 -0 0 0 0 0 0 0 0 0 0 0 0 0 0 0 0 0 0 0 0 0 0 0 0 0 0
0 0 0 0 0 0 0 0 0 0 0 0 0 0 0 0 0 0 0 0 0 0 0 0 0 0 0 0 0 0 0 0 0 0 0 0 0 0 0 0 0 0 0
0 0 0 0 0 0 0 0 0 0 0 0 0 0 0 0 0 0 0 0 0 0 0 0 0 0 0 0 0 0 0 0 0 0 0 0 0 0 0 0 0 0 0
0 0 0 0 0 0 0 0 0 0 0 0 0 0 0 0 0 0 0 0 0 0 0 0 0 0 0 0 0 0 0 0 0 0 0 0 0 0 0 0 0 0 0
0 0 0 0 0 0 0 0 0 0 0 0 0 0 0 0 0 0 0 0 0 0 0 0 0 0 0 0 0 0 0 0 0 0 0 0 0 0 0 0 0 0 0
0 0 0 0 0 0 0 0 0 0 0 0 0 0 0 0 0 0 0 0 0 0 0 0 0 0 0 0 0 0 0 0 0 0 0 0 0 0 0 0 0 0 0
Wind_Speed_500mb
32 29 28 21 18 16 11 8 8 8 11 11 13 16 17 17 20 22 25 20 18 21 24 26 22 20 25 24 26 23 19 17 17 19 23 27 26 25 31 35 42 45 45
36 36 32 32 22 19 15 14 16 17 19 23 23 25 21 21 23 28 26 23 20 19 22 24 24 22 26 26 27 19 15 15 14 17 21 26 26 25 30 35 38 44 47
35 38 39 31 24 20 20 20 20 24 22 24 26 24 27 27 29 28 26 28 22 23 20 19 15 16 23 30 32 16 12 14 14 20 24 25 20 26 28 33 34 42 44
33 31 31 30 21 25 27 27 29 30 30 30 31 28 29 33 32 26 31 30 27 28 26 16 13 16 21 22 31 20 14 17 18 20 26 33 20 24 25 33 38 41 43
38 36 34 30 29 33 36 36 34 34 34 29 33 29 31 37 32 35 33 28 28 29 26 16 14 19 25 23 28 22 25 31 29 26 23 26 25 26 26 35 40 41 40
49 47 41 41 35 40 38 37 39 37 34 30 34 35 35 39 37 38 34 34 36 28 25 22 18 19 21 21 23 18 19 23 30 27 25 22 23 26 28 34 38 42 43
41 37 39 41 42 46 42 38 40 41 37 37 39 38 41 37 44 46 46 42 30 16 16 13 21 18 17 23 19 24 28 25 25 23 23 22 20 20 27 36 38 40 42
45 47 47 44 38 44 49 42 33 32 33 34 35 37 42 41 39 31 36 28 20 14 11 15 20 23 18 23 20 28 32 27 25 22 21 19 20 19 29 35 40 41 39
64 60 53 51 44 45 44 29 28 26 30 34 34 33 25 24 35 39 38 25 22 16 15 10 17 11 17 23 25 29 29 26 23 20 20 17 18 21 29 34 39 40 39
39 44 48 55 53 44 41 32 45 27 38 45 47 40 36 39 36 29 29 23 17 21 19 12 11 9 10 19 25 26 22 23 19 19 14 14 17 22 30 38 38 40 39
42 53 57 50 43 38 45 37 40 50 58 45 50 41 36 37 33 33 32 30 21 25 23 21 18 20 20 19 25 24 23 20 14 17 13 12 17 26 33 40 37 38 39
18 22 28 28 28 33 34 43 38 42 47 59 52 41 38 36 28 30 27 34 35 29 28 30 29 29 26 21 26 24 21 18 12 12 17 19 21 28 36 36 36 35 39
16 13 10 7 14 22 33 39 38 45 50 73 56 40 40 39 32 33 34 29 32 32 33 36 35 33 31 26 27 24 20 10 16 17 20 25 29 32 35 34 33 34 35
20 15 12 11 11 13 17 30 53 59 72 70 73 48 40 38 44 38 38 32 28 33 42 40 41 39 35 32 29 23 20 12 13 18 22 30 30 35 41 32 29 30 33
22 16 12 12 15 18 19 26 36 49 69 76 75 44 42 41 42 39 40 42 30 33 45 44 46 43 39 33 33 23 21 15 17 24 26 27 29 28 30 28 26 30 32
31 30 18 17 17 17 23 29 34 40 48 56 73 65 49 42 38 39 38 41 40 45 47 51 41 42 39 37 31 24 22 17 19 21 24 24 24 24 27 24 23 28 31
31 32 34 22 25 22 24 26 30 35 45 49 51 49 49 43 33 39 39 40 42 38 50 49 44 45 43 35 28 25 23 20 18 17 21 18 22 26 24 23 24 27 31
21 23 26 32 27 29 28 28 25 23 33 44 48 51 64 46 44 41 41 51 51 41 50 53 42 41 42 38 30 27 25 21 16 13 17 22 19 24 21 22 24 26 32
34 29 28 23 30 33 28 30 32 27 25 31 42 51 56 62 60 44 42 41 50 44 47 55 46 41 43 42 35 30 26 22 22 20 18 22 22 20 21 22 24 25 30
43 40 34 28 22 33 36 33 33 35 37 38 35 36 51 58 60 45 49 49 44 41 39 49 56 39 42 43 38 31 29 22 24 25 26 27 26 23 16 15 22 25 28
39 34 31 31 32 27 34 40 39 41 42 42 30 17 25 44 56 59 55 53 47 36 40 43 61 56 43 48 43 33 30 25 26 28 24 27 29 25 18 16 25 27 27
49 46 43 38 35 39 36 44 45 43 44 48 45 34 30 31 42 52 63 61 58 53 46 55 72 61 53 50 42 34 36 29 34 27 28 24 28 25 19 16 21 24 23
60 60 60 58 54 46 45 48 51 56 53 48 51 48 46 42 40 42 48 59 65 63 60 52 71 70 59 54 41 34 33 36 37 27 25 21 27 25 18 18 17 20 19
45 46 51 53 60 63 58 53 55 62 65 62 54 51 56 56 47 48 48 46 56 58 64 73 64 69 61 48 36 38 36 35 30 35 27 22 25 22 19 18 17 17 16
43 44 46 48 53 60 61 66 65 67 70 70 66 60 53 58 57 50 50 48 47 44 60 67 67 65 68 70 55 41 33 28 35 40 34 24 23 19 20 18 16 18 14
51 51 49 48 51 56 55 57 61 70 79 76 74 77 65 61 58 58 53 52 45 42 47 58 76 70 69 63 60 45 28 28 35 41 40 31 22 18 12 17 16 18 14
Wind_Direction_500mb
235 230 229 225 221 226 235 263 296 307 322 326 326 297 309 305 306 307 303 304 305 292 300 311 324 334 338 326 322 309 305 316 324 338 345 351 348 350 354 355 354 353 351
243 245 244 240 236 236 258 275 276 279 274 286 290 300 310 312 307 309 305 304 297 289 298 311 326 333 340 337 320 304 303 311 326 336 337 353 348 338 346 349 350 352 348
245 250 250 251 257 264 260 272 273 271 275 279 295 290 292 297 304 309 308 303 301 285 287 310 324 329 318 332 332 345 354 344 345 339 328 325 336 341 342 347 345 342 345
242 252 260 266 276 275 272 266 271 267 269 280 293 287 299 304 299 303 301 300 298 290 299 302 313 305 307 322 328 346 324 308 327 332 335 327 331 337 348 339 337 336 344
251 255 263 272 272 270 277 273 268 263 269 276 293 302 295 303 301 311 306 286 305 286 287 264 282 299 307 298 319 317 297 303 297 310 317 323 323 326 339 342 340 337 341
254 256 264 266 269 259 275 280 279 278 284 284 293 289 286 290 292 300 301 295 291 283 278 268 256 265 293 305 313 322 309 293 292 298 304 314 314 312 339 336 334 335 338
272 272 277 282 270 270 284 285 288 287 294 294 289 294 289 295 297 300 296 290 283 272 257 268 255 254 271 301 310 317 308 305 292 291 296 303 300 308 326 328 331 335 336
271 276 278 286 274 270 269 283 286 295 283 295 294 296 302 299 311 327 308 275 263 237 250 252 254 259 264 304 301 313 308 303 283 269 290 292 296 309 321 323 332 335 333
260 264 269 269 259 257 254 276 308 304 289 282 280 276 282 280 294 304 311 287 248 238 249 262 256 246 282 298 309 314 311 300 285 258 288 287 287 313 323 323 329 332 330
260 265 273 273 270 264 257 263 303 292 279 286 265 258 259 273 278 294 283 324 219 223 226 236 236 239 276 285 297 311 319 304 284 238 261 285 301 313 317 316 326 331 331
249 253 264 266 275 275 263 263 280 246 251 270 260 254 263 264 270 273 278 276 244 230 227 243 244 247 261 279 297 309 320 314 262 256 251 276 300 311 316 319 326 328 330
313 295 287 293 282 276 269 270 272 263 250 248 258 260 256 261 281 283 259 258 259 241 228 232 235 244 262 273 291 306 316 309 246 263 281 288 299 311 311 315 324 326 330
35 28 11 326 277 260 252 257 243 262 254 250 255 261 259 253 257 266 249 261 254 236 226 231 236 241 256 268 283 296 306 275 254 272 285 295 302 306 308 319 322 330 335
23 21 9 341 306 276 256 235 241 248 242 258 249 252 248 246 255 259 251 233 241 231 228 238 239 245 254 264 276 291 302 282 244 268 286 291 299 304 312 316 323 335 335
12 13 342 320 310 297 264 250 252 249 245 257 246 253 245 246 247 256 255 249 243 225 232 232 240 242 248 259 268 287 285 263 239 265 277 286 295 303 315 313 328 333 332
358 351 346 321 302 297 287 283 269 261 261 253 249 257 242 242 249 251 254 244 246 254 241 235 244 241 241 250 255 279 280 273 243 246 261 273 289 304 299 312 321 327 327
351 345 339 328 309 302 294 284 283 277 271 264 254 237 232 242 252 255 248 229 239 249 235 237 237 237 236 240 247 262 272 268 253 244 246 266 284 294 301 304 312 316 331
343 345 334 324 307 305 300 300 304 307 280 272 269 255 235 242 242 250 238 224 227 230 231 236 237 234 234 230 238 251 258 262 263 256 237 255 270 286 305 305 305 317 330
318 312 310 315 310 305 307 298 298 302 295 295 275 260 254 242 242 250 252 239 227 228 226 232 249 245 230 225 232 241 246 256 252 252 241 248 259 276 291 300 302 320 332
311 306 294 288 291 303 304 300 296 289 292 300 309 275 251 250 249 258 248 243 232 229 235 235 239 239 225 223 226 237 241 247 263 250 246 252 260 267 279 295 311 322 328
299 295 295 278 267 267 282 297 303 294 288 288 295 302 274 258 257 255 253 247 237 240 242 239 230 236 221 220 225 231 236 235 264 268 265 257 259 260 265 279 302 311 327
284 282 281 282 277 261 257 275 285 288 292 287 285 275 276 271 263 256 248 251 253 245 243 245 235 229 233 227 224 232 229 241 251 269 278 272 269 265 258 264 284 302 320
284 280 275 273 273 268 265 268 273 278 277 279 282 281 280 279 279 275 261 256 252 251 252 251 243 235 240 242 223 234 241 249 256 259 290 275 276 264 249 260 272 291 312
295 289 281 276 271 266 262 260 259 266 272 273 274 278 276 277 278 285 282 272 263 257 247 243 250 243 234 245 247 251 249 253 256 254 269 277 289 264 239 246 256 275 298
298 295 293 286 279 272 265 262 255 255 257 263 270 271 274 275 272 278 279 280 262 273 257 241 242 245 233 242 249 243 236 250 243 251 257 263 282 266 241 230 249 261 282
302 299 292 288 282 281 277 268 259 255 254 255 255 263 265 265 268 268 278 278 276 260 268 248 242 242 234 227 221 213 220 243 256 252 256 249 269 246 241 226 225 250 264
Wind_Speed_850mb
32 29 28 21 18 16 11 8 8 8 11 11 13 16 17 17 20 22 25 20 18 21 24 26 22 20 25 24 26 23 19 17 17 19 23 27 26 25 31 35 42 45 45
36 36 32 32 22 19 15 14 16 17 19 23 23 25 21 21 23 28 26 23 20 19 22 24 24 22 26 26 27 19 15 15 14 17 21 26 26 25 30 35 38 44 47
35 38 39 31 24 20 20 20 20 24 22 24 26 24 27 27 29 28 26 28 22 23 20 19 15 16 23 30 32 16 12 14 14 20 24 25 20 26 28 33 34 42 44
33 31 31 30 21 25 27 27 29 30 30 30 31 28 29 33 32 26 31 30 27 28 26 16 13 16 21 22 31 20 14 17 18 20 26 33 20 24 25 33 38 41 43
38 36 34 30 29 33 36 36 34 34 34 29 33 29 31 37 32 35 33 28 28 29 26 16 14 19 25 23 28 22 25 31 29 26 23 26 25 26 26 35 40 41 40
49 47 41 41 35 40 38 37 39 37 34 30 34 35 35 39 37 38 34 34 36 28 25 22 18 19 21 21 23 18 19 23 30 27 25 22 23 26 28 34 38 42 43
41 37 39 41 42 46 42 38 40 41 37 37 39 38 41 37 44 46 46 42 30 16 16 13 21 18 17 23 19 24 28 25 25 23 23 22 20 20 27 36 38 40 42
45 47 47 44 38 44 49 42 33 32 33 34 35 37 42 41 39 31 36 28 20 14 11 15 20 23 18 23 20 28 32 27 25 22 21 19 20 19 29 35 40 41 39
64 60 53 51 44 45 44 29 28 26 30 34 34 33 25 24 35 39 38 25 22 16 15 10 17 11 17 23 25 29 29 26 23 20 20 17 18 21 29 34 39 40 39
39 44 48 55 53 44 41 32 45 27 38 45 47 40 36 39 36 29 29 23 17 21 19 12 11 9 10 19 25 26 22 23 19 19 14 14 17 22 30 38 38 40 39
42 53 57 50 43 38 45 37 40 50 58 45 50 41 36 37 33 33 32 30 21 25 23 21 18 20 20 19 25 24 23 20 14 17 13 12 17 26 33 40 37 38 39
18 22 28 28 28 33 34 43 38 42 47 59 52 41 38 36 28 30 27 34 35 29 28 30 29 29 26 21 26 24 21 18 12 12 17 19 21 28 36 36 36 35 39
16 13 10 7 14 22 33 39 38 45 50 73 56 40 40 39 32 33 34 29 32 32 33 36 35 33 31 26 27 24 20 10 16 17 20 25 29 32 35 34 33 34 35
20 15 12 11 11 13 17 30 53 59 72 70 73 48 40 38 44 38 38 32 28 33 42 40 41 39 35 32 29 23 20 12 13 18 22 30 30 35 41 32 29 30 33
22 16 12 12 15 18 19 26 36 49 69 76 75 44 42 41 42 39 40 42 30 33 45 44 46 43 39 33 33 23 21 15 17 24 26 27 29 28 30 28 26 30 32
31 30 18 17 17 17 23 29 34 40 48 56 73 65 49 42 38 39 38 41 40 45 47 51 41 42 39 37 31 24 22 17 19 21 24 24 24 24 27 24 23 28 31
31 32 34 22 25 22 24 26 30 35 45 49 51 49 49 43 33 39 39 40 42 38 50 49 44 45 43 35 28 25 23 20 18 17 21 18 22 26 24 23 24 27 31
21 23 26 32 27 29 28 28 25 23 33 44 48 51 64 46 44 41 41 51 51 41 50 53 42 41 42 38 30 27 25 21 16 13 17 22 19 24 21 22 24 26 32
34 29 28 23 30 33 28 30 32 27 25 31 42 51 56 62 60 44 42 41 50 44 47 55 46 41 43 42 35 30 26 22 22 20 18 22 22 20 21 22 24 25 30
43 40 34 28 22 33 36 33 33 35 37 38 35 36 51 58 60 45 49 49 44 41 39 49 56 39 42 43 38 31 29 22 24 25 26 27 26 23 16 15 22 25 28
39 34 31 31 32 27 34 40 39 41 42 42 30 17 25 44 56 59 55 53 47 36 40 43 61 56 43 48 43 33 30 25 26 28 24 27 29 25 18 16 25 27 27
49 46 43 38 35 39 36 44 45 43 44 48 45 34 30 31 42 52 63 61 58 53 46 55 72 61 53 50 42 34 36 29 34 27 28 24 28 25 19 16 21 24 23
60 60 60 58 54 46 45 48 51 56 53 48 51 48 46 42 40 42 48 59 65 63 60 52 71 70 59 54 41 34 33 36 37 27 25 21 27 25 18 18 17 20 19
45 46 51 53 60 63 58 53 55 62 65 62 54 51 56 56 47 48 48 46 56 58 64 73 64 69 61 48 36 38 36 35 30 35 27 22 25 22 19 18 17 17 16
43 44 46 48 53 60 61 66 65 67 70 70 66 60 53 58 57 50 50 48 47 44 60 67 67 65 68 70 55 41 33 28 35 40 34 24 23 19 20 18 16 18 14
51 51 49 48 51 56 55 57 61 70 79 76 74 77 65 61 58 58 53 52 45 42 47 58 76 70 69 63 60 45 28 28 35 41 40 31 22 18 12 17 16 18 14
Wind_Direction_850mb
235 230 229 225 221 226 235 263 296 307 322 326 326 297 309 305 306 307 303 304 305 292 300 311 324 334 338 326 322 309 305 316 324 338 345 351 348 350 354 355 354 353 351
243 245 244 240 236 236 258 275 276 279 274 286 290 300 310 312 307 309 305 304 297 289 298 311 326 333 340 337 320 304 303 311 326 336 337 353 348 338 346 349 350 352 348
245 250 250 251 257 264 260 272 273 271 275 279 295 290 292 297 304 309 308 303 301 285 287 310 324 329 318 332 332 345 354 344 345 339 328 325 336 341 342 347 345 342 345
242 252 260 266 276 275 272 266 271 267 269 280 293 287 299 304 299 303 301 300 298 290 299 302 313 305 307 322 328 346 324 308 327 332 335 327 331 337 348 339 337 336 344
251 255 263 272 272 270 277 273 268 263 269 276 293 302 295 303 301 311 306 286 305 286 287 264 282 299 307 298 319 317 297 303 297 310 317 323 323 326 339 342 340 337 341
254 256 264 266 269 259 275 280 279 278 284 284 293 289 286 290 292 300 301 295 291 283 278 268 256 265 293 305 313 322 309 293 292 298 304 314 314 312 339 336 334 335 338
272 272 277 282 270 270 284 285 288 287 294 294 289 294 289 295 297 300 296 290 283 272 257 268 255 254 271 301 310 317 308 305 292 291 296 303 300 308 326 328 331 335 336
271 276 278 286 274 270 269 283 286 295 283 295 294 296 302 299 311 327 308 275 263 237 250 252 254 259 264 304 301 313 308 303 283 269 290 292 296 309 321 323 332 335 333
260 264 269 269 259 257 254 276 308 304 289 282 280 276 282 280 294 304 311 287 248 238 249 262 256 246 282 298 309 314 311 300 285 258 288 287 287 313 323 323 329 332 330
260 265 273 273 270 264 257 263 303 292 279 286 265 258 259 273 278 294 283 324 219 223 226 236 236 239 276 285 297 311 319 304 284 238 261 285 301 313 317 316 326 331 331
249 253 264 266 275 275 263 263 280 246 251 270 260 254 263 264 270 273 278 276 244 230 227 243 244 247 261 279 297 309 320 314 262 256 251 276 300 311 316 319 326 328 330
313 295 287 293 282 276 269 270 272 263 250 248 258 260 256 261 281 283 259 258 259 241 228 232 235 244 262 273 291 306 316 309 246 263 281 288 299 311 311 315 324 326 330
35 28 11 326 277 260 252 257 243 262 254 250 255 261 259 253 257 266 249 261 254 236 226 231 236 241 256 268 283 296 306 275 254 272 285 295 302 306 308 319 322 330 335
23 21 9 341 306 276 256 235 241 248 242 258 249 252 248 246 255 259 251 233 241 231 228 238 239 245 254 264 276 291 302 282 244 268 286 291 299 304 312 316 323 335 335
12 13 342 320 310 297 264 250 252 249 245 257 246 253 245 246 247 256 255 249 243 225 232 232 240 242 248 259 268 287 285 263 239 265 277 286 295 303 315 313 328 333 332
358 351 346 321 302 297 287 283 269 261 261 253 249 257 242 242 249 251 254 244 246 254 241 235 244 241 241 250 255 279 280 273 243 246 261 273 289 304 299 312 321 327 327
351 345 339 328 309 302 294 284 283 277 271 264 254 237 232 242 252 255 248 229 239 249 235 237 237 237 236 240 247 262 272 268 253 244 246 266 284 294 301 304 312 316 331
343 345 334 324 307 305 300 300 304 307 280 272 269 255 235 242 242 250 238 224 227 230 231 236 237 234 234 230 238 251 258 262 263 256 237 255 270 286 305 305 305 317 330
318 312 310 315 310 305 307 298 298 302 295 295 275 260 254 242 242 250 252 239 227 228 226 232 249 245 230 225 232 241 246 256 252 252 241 248 259 276 291 300 302 320 332
311 306 294 288 291 303 304 300 296 289 292 300 309 275 251 250 249 258 248 243 232 229 235 235 239 239 225 223 226 237 241 247 263 250 246 252 260 267 279 295 311 322 328
299 295 295 278 267 267 282 297 303 294 288 288 295 302 274 258 257 255 253 247 237 240 242 239 230 236 221 220 225 231 236 235 264 268 265 257 259 260 265 279 302 311 327
284 282 281 282 277 261 257 275 285 288 292 287 285 275 276 271 263 256 248 251 253 245 243 245 235 229 233 227 224 232 229 241 251 269 278 272 269 265 258 264 284 302 320
284 280 275 273 273 268 265 268 273 278 277 279 282 281 280 279 279 275 261 256 252 251 252 251 243 235 240 242 223 234 241 249 256 259 290 275 276 264 249 260 272 291 312
295 289 281 276 271 266 262 260 259 266 272 273 274 278 276 277 278 285 282 272 263 257 247 243 250 243 234 245 247 251 249 253 256 254 269 277 289 264 239 246 256 275 298
298 295 293 286 279 272 265 262 255 255 257 263 270 271 274 275 272 278 279 280 262 273 257 241 242 245 233 242 249 243 236 250 243 251 257 263 282 266 241 230 249 261 282
302 299 292 288 282 281 277 268 259 255 254 255 255 263 265 265 268 268 278 278 276 260 268 248 242 242 234 227 221 213 220 243 256 252 256 249 269 246 241 226 225 250 264